Location: Gleizolles
(44.4833°N, 6.7667°E)
Time: 01:06:32
(UTC+00:00)

S-56A Canister/Altair - Pass Details

Date: 25 June 2024
Orbit: 638 x 2488 km, 38.9° (Epoch: 24 July)

Event Time Altitude Azimuth Distance (km) Brightness Sun altitude
Rises 00:19:34 0° 278° (W) 4,979 11.7 -21.4°
Reaches altitude 10° 00:22:36 10° 274° (W) 4,209 11.2 -21.3°
Maximum altitude 00:33:59 52° 203° (SSW) 2,700 9.8 -20.8°
Drops below altitude 10° 00:48:07 10° 134° (SE) 5,142 11.5 -20.1°
Sets 00:52:17 0° 129° (SE) 6,127 11.9 -19.9°
